User: anonymous   Login
Location: Unspecified
(0.0000°N, 0.0000°E)
Time: 23:59:17
(UTC+00:00)
Language:

FLOCK 4G 22 - Orbit

View from above orbital plane
View from above orbital plane
View from above satellite
View from above satellite

Ground track
Ground track

The orbit is defined by the following mean orbital elements,

1 62645U          26145.17678447 +.00000000 +00000-0 +36835-3 0 00006
2 62645  97.4008 227.3117 0002949  53.3758 306.7753 15.28738889    01
Epoch (UTC): 25 May 2026 04:14:34
Eccentricity: 0.0002949
inclination: 97.4008°
perigee height: 478 km
apogee height: 482 km
right ascension of ascending node: 227.3117°
argument of perigee: 53.3758°
revolutions per day: 15.28738889
mean anomaly at epoch: 306.7753°

The dashed part of the orbit path shows where the satellite is in the earth's shadow,  

DLR